Murray, KY

7:49 AM CST on December 08, 2019 (GMT -0600)
Kyle-Oakley

Weather History for KCEY - October, 2019

Change the Weather History Date:

Friday, October 4, 2019

  Actual Average (WUND) Record (WUND)
Temperature  
Mean Temperature 66 °F -  
Max Temperature 77 °F - - (-1)
Min Temperature 55 °F - - (-1)
Cooling Degree Days 1    
Growing Degree Days 16 (Base 50)    
Moisture  
Dew Point 52 °F    
Average Humidity 66    
Maximum Humidity 100    
Minimum Humidity 36    
Precipitation  
Precipitation 0.00 in - - ()
Sea Level Pressure  
Sea Level Pressure 30.19 in    
Wind  
Wind Speed 10 mph (North)    
Max Wind Speed 15 mph    
Max Gust Speed 21 mph    
Visibility 10 miles    
Events      
Averages and records for this station are not official NWS values.
T = Trace of Precipitation, MM = Missing Value Source: NWS Daily Summary

Daily Weather History Graph

Daily Weather History Graph

Search for Another Location

Airport or City:

Astronomy

Oct. 04, 2019 Rise Set
Actual Time 6:51 AM CDT 6:32 PM CDT
Civil Twilight 6:25 AM CDT 6:58 PM CDT
Nautical Twilight 5:55 AM CDT 7:28 PM CDT
Astronomical Twilight 5:25 AM CDT 7:58 PM CDT
Moon 1:14 PM CDT (10/4) 11:10 PM CDT (10/4)
Length of Visible Light 12h 33m
Length of Day
11h 41m
Waxing Crescent, 40% of the Moon is Illuminated
Oct 4
Waxing Crescent
Oct 5
First Quarter
Oct 13
Full
Oct 21
Last Quarter
Oct 27
New

Hourly Weather History & Observations

Time (CDT) Temp. Dew Point Humidity Pressure Visibility Wind Dir Wind Speed Gust Speed Precip Events Conditions
12:15 AM 66.2 °F 57.2 °F 73% 30.17 in 10.0 mi NNW 11.5 mph 19.6 mph N/A   Clear
12:55 AM 64.4 °F 55.4 °F 73% 30.18 in 10.0 mi North 9.2 mph 17.3 mph N/A   Clear
1:15 AM 64.4 °F 55.4 °F 73% 30.18 in 10.0 mi North 9.2 mph - N/A   Clear
1:35 AM 62.6 °F 55.4 °F 77% 30.18 in 10.0 mi North 13.8 mph 18.4 mph N/A   Clear
1:55 AM 62.6 °F 55.4 °F 77% 30.19 in 10.0 mi North 15.0 mph 19.6 mph N/A   Unknown
2:15 AM 62.6 °F 55.4 °F 77% 30.19 in 10.0 mi North 12.7 mph 18.4 mph N/A   Clear
2:35 AM 60.8 °F 55.4 °F 82% 30.19 in 10.0 mi North 10.4 mph - N/A   Clear
2:55 AM 60.8 °F 55.4 °F 82% 30.19 in 10.0 mi North 9.2 mph - N/A   Clear
3:15 AM 59.0 °F 55.4 °F 88% 30.19 in 10.0 mi North 9.2 mph - N/A   Clear
3:35 AM 59.0 °F 55.4 °F 88% 30.20 in 10.0 mi North 10.4 mph - N/A   Clear
3:55 AM 59.0 °F 55.4 °F 88% 30.20 in 10.0 mi North 10.4 mph - N/A   Unknown
4:15 AM 59.0 °F 55.4 °F 88% 30.20 in 10.0 mi North 9.2 mph - N/A   Clear
4:35 AM 57.2 °F 55.4 °F 94% 30.20 in 10.0 mi North 8.1 mph - N/A   Clear
4:55 AM 57.2 °F 55.4 °F 94% 30.21 in 10.0 mi North 8.1 mph - N/A   Clear
5:15 AM 57.2 °F 55.4 °F 94% 30.21 in 10.0 mi North 9.2 mph - N/A   Unknown
5:35 AM 57.2 °F 55.4 °F 94% 30.21 in 10.0 mi North 9.2 mph - N/A   Unknown
5:55 AM 57.2 °F 55.4 °F 94% 30.22 in 10.0 mi North 9.2 mph - N/A   Clear
6:15 AM 55.4 °F 55.4 °F 100% 30.22 in 10.0 mi North 8.1 mph - N/A   Clear
6:35 AM 55.4 °F 55.4 °F 100% 30.23 in 10.0 mi North 9.2 mph - N/A   Clear
6:55 AM 55.4 °F 53.6 °F 94% 30.23 in 10.0 mi North 8.1 mph - N/A   Clear
7:15 AM 55.4 °F 53.6 °F 94% 30.23 in 10.0 mi North 8.1 mph - N/A   Clear
7:35 AM 55.4 °F 55.4 °F 100% 30.24 in 10.0 mi North 6.9 mph - N/A   Clear
7:55 AM 57.2 °F 55.4 °F 94% 30.24 in 10.0 mi North 9.2 mph - N/A   Clear
8:15 AM 57.2 °F 55.4 °F 94% 30.24 in 10.0 mi NNE 12.7 mph - N/A   Clear
8:35 AM 59.0 °F 55.4 °F 88% 30.24 in 10.0 mi NNE 12.7 mph - N/A   Clear
8:55 AM 60.8 °F 55.4 °F 82% 30.24 in 10.0 mi NNE 9.2 mph - N/A   Clear
9:15 AM 60.8 °F 53.6 °F 77% 30.24 in 10.0 mi NNE 11.5 mph - N/A   Clear
9:35 AM 62.6 °F 55.4 °F 77% 30.24 in 10.0 mi NE 12.7 mph - N/A   Clear
10:15 AM 64.4 °F 55.4 °F 73% 30.24 in 10.0 mi NNE 11.5 mph - N/A   Clear
10:35 AM 66.2 °F 55.4 °F 68% 30.24 in 10.0 mi North 9.2 mph - N/A   Clear
10:55 AM 66.2 °F 55.4 °F 68% 30.23 in 10.0 mi North 11.5 mph 17.3 mph N/A   Clear
11:15 AM 68.0 °F 55.4 °F 64% 30.23 in 10.0 mi North 11.5 mph 17.3 mph N/A   Clear
11:35 AM 68.0 °F 55.4 °F 64% 30.22 in 10.0 mi North 11.5 mph - N/A   Clear
11:55 AM 71.6 °F 55.4 °F 57% 30.22 in 10.0 mi NE 10.4 mph - N/A   Clear
12:15 PM 71.6 °F 55.4 °F 57% 30.22 in 10.0 mi NNE 10.4 mph 17.3 mph N/A   Clear
12:35 PM 73.4 °F 53.6 °F 50% 30.21 in 10.0 mi NNE 12.7 mph - N/A   Clear
12:55 PM 73.4 °F 53.6 °F 50% 30.21 in 10.0 mi North 13.8 mph 20.7 mph N/A   Clear
1:15 PM 73.4 °F 53.6 °F 50% 30.20 in 10.0 mi NNE 9.2 mph 17.3 mph N/A   Clear
1:35 PM 73.4 °F 53.6 °F 50% 30.19 in 10.0 mi North 12.7 mph 19.6 mph N/A   Clear
1:55 PM 75.2 °F 51.8 °F 44% 30.18 in 10.0 mi North 15.0 mph 20.7 mph N/A   Clear
2:15 PM 75.2 °F 51.8 °F 44% 30.17 in 10.0 mi NNE 12.7 mph - N/A   Clear
2:35 PM 75.2 °F 51.8 °F 44% 30.17 in 10.0 mi NNE 12.7 mph 18.4 mph N/A   Clear
2:55 PM 77.0 °F 51.8 °F 41% 30.17 in 10.0 mi NNE 12.7 mph 18.4 mph N/A   Clear
3:15 PM 77.0 °F 50.0 °F 39% 30.16 in 10.0 mi NNE 13.8 mph 18.4 mph N/A   Clear
3:35 PM 77.0 °F 50.0 °F 39% 30.16 in 10.0 mi NNW 8.1 mph 18.4 mph N/A   Clear
3:55 PM 75.2 °F 50.0 °F 41% 30.16 in 10.0 mi North 12.7 mph 16.1 mph N/A   Clear
4:15 PM 77.0 °F 50.0 °F 39% 30.15 in 10.0 mi NNE 10.4 mph - N/A   Clear
4:35 PM 77.0 °F 48.2 °F 36% 30.15 in 10.0 mi NNE 10.4 mph - N/A   Clear
4:55 PM 77.0 °F 48.2 °F 36% 30.15 in 10.0 mi NNE 11.5 mph 17.3 mph N/A   Clear
5:15 PM 75.2 °F 46.4 °F 36% 30.15 in 10.0 mi North 10.4 mph - N/A   Clear
5:35 PM 75.2 °F 46.4 °F 36% 30.15 in 10.0 mi North 13.8 mph 19.6 mph N/A   Clear
5:55 PM 73.4 °F 46.4 °F 38% 30.15 in 10.0 mi North 10.4 mph - N/A   Clear
6:15 PM 73.4 °F 46.4 °F 38% 30.15 in 10.0 mi North 10.4 mph - N/A   Clear
6:35 PM 71.6 °F 46.4 °F 41% 30.15 in 10.0 mi North 9.2 mph - N/A   Clear
6:55 PM 69.8 °F 46.4 °F 43% 30.16 in 10.0 mi North 9.2 mph - N/A   Clear
7:15 PM 68.0 °F 46.4 °F 46% 30.16 in 10.0 mi North 8.1 mph - N/A   Clear
7:35 PM 68.0 °F 46.4 °F 46% 30.16 in 10.0 mi North 6.9 mph - N/A   Clear
7:55 PM 66.2 °F 46.4 °F 49% 30.16 in 10.0 mi North 6.9 mph - N/A   Clear
8:15 PM 66.2 °F 46.4 °F 49% 30.16 in 10.0 mi North 6.9 mph - N/A   Clear
8:35 PM 64.4 °F 48.2 °F 56% 30.16 in 10.0 mi North 6.9 mph - N/A   Clear
8:55 PM 62.6 °F 48.2 °F 59% 30.16 in 10.0 mi North 5.8 mph - N/A   Clear
9:15 PM 62.6 °F 48.2 °F 59% 30.17 in 10.0 mi North 5.8 mph - N/A   Clear
9:35 PM 62.6 °F 48.2 °F 59% 30.17 in 10.0 mi North 4.6 mph - N/A   Unknown
9:55 PM 62.6 °F 48.2 °F 59% 30.17 in 10.0 mi North 4.6 mph - N/A   Clear
10:15 PM 62.6 °F 48.2 °F 59% 30.17 in 10.0 mi North 6.9 mph - N/A   Clear
10:35 PM 62.6 °F 48.2 °F 59% 30.17 in 10.0 mi North 6.9 mph - N/A   Clear
10:55 PM 60.8 °F 48.2 °F 63% 30.16 in 10.0 mi NNE 6.9 mph - N/A   Clear
11:15 PM 59.0 °F 48.2 °F 67% 30.16 in 10.0 mi NNE 5.8 mph - N/A   Clear
11:35 PM 59.0 °F 48.2 °F 67% 30.15 in 10.0 mi NNE 5.8 mph - N/A   Clear
11:55 PM 59.0 °F 48.2 °F 67% 30.15 in 10.0 mi NE 5.8 mph - N/A   Clear